Location: İstanbul
(41.0082°N, 28.9784°E)
Time: 02:04:40
(UTC+03:00)

CUBEBUG 2 - Visible Passes

Search period start: 19 April 2024 00:00
Search period end: 29 April 2024 00:00
Orbit: 570 x 672 km, 97.8° (Epoch: 18 April)

Date Brightness Start Highest point End Pass type
(mag) Time Alt. Az. Time Alt. Az. Time Alt. Az.
19 Apr ? 03:39:13 10° N 03:41:46 33° NNW 03:41:46 33° NNW visible
20 Apr ? 02:21:30 10° NE 02:22:32 15° ENE 02:22:32 15° ENE visible
20 Apr ? 03:57:08 10° N 03:59:44 27° NW 03:59:44 27° NW visible
21 Apr ? 02:38:38 10° NNE 02:40:30 22° NE 02:40:30 22° NE visible
21 Apr ? 04:15:14 10° NNW 04:17:42 20° NW 04:17:42 20° NW visible
22 Apr ? 02:56:01 10° NNE 02:58:26 32° NE 02:58:26 32° NE visible
22 Apr ? 04:33:42 10° NW 04:35:38 14° WNW 04:35:38 14° WNW visible
23 Apr ? 03:13:32 10° NNE 03:16:21 43° NNE 03:16:21 43° NNE visible
24 Apr ? 03:31:10 10° N 03:34:16 46° NNW 03:34:16 46° NNW visible
25 Apr ? 02:13:46 10° NE 02:14:57 14° ENE 02:14:57 14° ENE visible
25 Apr ? 03:48:56 10° N 03:52:08 36° NW 03:52:08 36° NW visible
26 Apr ? 02:30:40 10° NE 02:32:49 22° ENE 02:32:49 22° ENE visible
26 Apr ? 04:06:49 10° NNW 04:10:00 25° WNW 04:10:00 25° WNW visible
27 Apr ? 02:47:51 10° NNE 02:50:40 33° ENE 02:50:40 33° ENE visible
27 Apr ? 04:24:58 10° NNW 04:27:38 17° WNW 04:27:51 17° WNW visible
28 Apr ? 03:05:13 10° NNE 03:08:30 51° NE 03:08:30 51° NE visible
28 Apr ? 04:43:46 10° NW 04:44:58 11° WNW 04:45:41 11° WNW visible
